Weather Roundup
Issued by NWS Chicago, IL

Home | Current Version | Previous Version | Graphics & Text | Print | Product List | Glossary On
Versions: 1 2 3 4 5 6 7 8 9 10 11 12 13 14 15 16 17 18 19 20 21 22 23 24 25 26 27 28 29 30 31 32 33 34 35 36 37 38 39 40 41 42 43 44 45 46 47 48 49 50
000
NZUS59 KLOT 221704
HRRLOT

CHICAGO AREA WEATHER ROUNDUP
NATIONAL WEATHER SERVICE CHICAGO/ROMEOVILLE IL
1200 PM CDT SUN OCT 22 2017

NOTE: "FAIR" INDICATES FEW OR NO CLOUDS BELOW 12,000 FEET WITH NO
SIGNIFICANT WEATHER AND/OR OBSTRUCTIONS TO VISIBILITY.

* THESE STATIONS ARE NOT UNDER NWS QUALITY CONTROL. THEY ALSO MAY NOT
  REPORT WEATHER SUCH AS PRECIPITATION OR FOG.

ILZ005-006-012>014-019>023-221800-
NORTHEAST ILLINOIS

CITY           SKY/WX    TMP DP  RH WIND       PRES   REMARKS
OHARE          CLOUDY    68  61  78 S16       29.93F
MIDWAY         CLOUDY    71  61  70 S21G26    29.94F
AURORA         CLOUDY    66  63  90 S10       29.94S
LANSING*       CLOUDY    66  63  91 S14       29.98S
JOLIET*        CLOUDY    70  63  77 S14G21    29.94S
WAUKEGAN       CLOUDY    66  63  90 S15       29.93S
DUPAGE AIRPORT CLOUDY    65  63  93 S6        29.93S
WHEELING       CLOUDY    68  64  87 S10       29.94F
KANKAKEE*      CLOUDY    71  60  67 S17G28    29.97F
NORTHERLY ISL    N/A     70  58  65 S17         N/A
$$

WIZ051-052-058>065-066-070>072-221800-
SOUTHEAST WISCONSIN

CITY           SKY/WX    TMP DP  RH WIND       PRES   REMARKS
MILWAUKEE      LGT RAIN  66  63  90 S12       29.92S
KENOSHA*       LGT RAIN  66  61  84 S10       29.93S
RACINE*        CLOUDY    64  62  93 S7        29.94S
WAUKESHA       LGT RAIN  61  59  94 SW12      29.94R FOG
WEST BEND      LGT RAIN  54  52  94 NW10G18   29.95R
$$

INZ001>003-010>013-019-020-221800-
NORTHWEST INDIANA

CITY           SKY/WX    TMP DP  RH WIND       PRES   REMARKS
GARY*          CLOUDY    68  61  77 S14G25    29.98S
MICHIGAN CITY* NOT AVBL
RENSSELAER*    NOT AVBL
VALPARAISO     CLOUDY    72  59  63 S17G25    30.01F
$$

LMZ740>746-221800-
SOUTHERN LAKE MICHIGAN

STATION/POSITION TIME  SKY/WX   TEMP WIND        PRES    VSBY
                                AIR  DIR/SP/G
                 (UTC)          (F)  (DEG/KT/KT) (MB)    (MI)
HARRISON CRIB    1640            68  180/ 23/ 24   N/A
BURNHAM HARBOR   1700            70  200/ 15/ 16   N/A
CALUMET HARBOR   1630            70  160/ 15/ 22 1013.8F
BURNS HARBOR     1640            70  180/ 15/ 23 1015.6F
MICHIGAN CITY    1640            69  170/ 17/ 21   N/A
$$

ABBREVIATIONS USED IN REMARKS
   TC - TEMPERATURE IN CELSIUS
  WCI - WIND CHILL INDEX
   HX - HEAT INDEX
  VSB - VISIBILITY
$$




USA.gov is the U.S. government's official web portal to all federal, state and local government web resources and services.